Location: Mahannah Oil Field
(37.4664°N, 96.6003°W)
Time: 14:56:35
(UTC+00:00)

Transit 4A - All Passes

Search period start: 23 January 2021 00:00
Search period end: 02 February 2021 00:00
Orbit: 864 x 980 km, 66.8° (Epoch: 23 January)

Date Brightness Start Highest point End Pass type
(mag) Time Alt. Az. Time Alt. Az. Time Alt. Az.
23 Jan - 00:16:05 10° SSE 00:20:56 23° ESE 00:25:48 10° NE visible
23 Jan - 02:00:35 10° SW 02:06:51 56° WNW 02:13:09 10° NNE visible
23 Jan - 03:52:40 10° WNW 03:54:39 11° NW 03:56:38 10° NNW visible
23 Jan - 09:20:32 10° N 09:24:56 20° NE 09:29:13 10° E visible
23 Jan - 11:05:49 10° NNW 11:11:56 73° WSW 11:17:50 10° SSE visible
24 Jan - 00:24:20 10° S 00:30:02 35° ESE 00:35:45 10° NE visible
24 Jan - 02:10:23 10° WSW 02:16:18 39° NW 02:22:15 10° NNE visible
24 Jan - 09:29:21 10° N 09:34:34 28° NE 09:39:38 10° ESE visible
24 Jan - 11:15:19 10° NW 11:21:08 47° WSW 11:26:47 10° S visible
25 Jan - 00:33:02 10° S 00:39:11 53° ESE 00:45:24 10° NE visible
25 Jan - 02:20:29 10° WSW 02:25:52 28° NW 02:31:15 10° N visible
25 Jan - 09:38:21 10° NNW 09:44:07 40° NE 09:49:40 10° ESE visible
25 Jan - 11:25:02 10° NW 11:30:16 31° WSW 11:35:22 10° SSW visible
25 Jan - 23:02:05 10° ESE 23:03:06 10° E 23:04:06 10° E daylight
26 Jan - 00:42:03 10° SSW 00:48:26 79° ESE 00:54:51 10° NNE visible
26 Jan - 02:30:59 10° W 02:35:31 20° NW 02:40:03 10° N visible
26 Jan - 08:04:01 10° NNE 08:05:47 11° NE 08:07:34 10° NE night (unlit)
26 Jan - 09:47:29 10° NNW 09:53:34 58° ENE 09:59:24 10° SE visible
26 Jan - 11:35:07 10° WNW 11:39:19 20° WSW 11:43:27 10° SSW visible
26 Jan - 23:08:05 10° SE 23:12:05 17° ESE 23:16:05 10° ENE daylight
27 Jan - 00:51:23 10° SW 00:57:46 72° WNW 01:04:10 10° NNE visible
27 Jan - 02:42:00 10° WNW 02:45:16 14° NW 02:48:33 10° N visible
27 Jan - 08:11:58 10° N 08:15:37 16° NE 08:19:11 10° E night (unlit)
27 Jan - 09:56:45 10° NNW 10:02:54 87° ENE 10:08:51 10° SSE visible
27 Jan - 11:46:11 10° W 11:48:18 12° W 11:50:26 10° WSW visible
27 Jan - 23:15:55 10° SSE 23:21:07 27° ESE 23:26:21 10° NE daylight
28 Jan - 01:01:00 10° SW 01:07:10 49° WNW 01:13:21 10° NNE visible
28 Jan - 08:20:37 10° N 08:25:19 22° NE 08:29:54 10° E night (unlit)
28 Jan - 10:06:08 10° NW 10:12:10 63° WSW 10:18:00 10° SSE night (unlit)
28 Jan - 23:24:20 10° S 23:30:15 41° ESE 23:36:10 10° NE daylight
29 Jan - 01:10:55 10° WSW 01:16:40 34° NW 01:22:26 10° N visible
29 Jan - 08:29:31 10° N 08:34:56 31° NE 08:40:10 10° ESE night (unlit)
29 Jan - 10:15:43 10° NW 10:21:21 40° WSW 10:26:48 10° S night (unlit)
29 Jan - 23:33:10 10° SSW 23:39:26 62° ESE 23:45:44 10° NE daylight
30 Jan - 01:21:09 10° WSW 01:26:15 24° NW 01:31:21 10° N visible
30 Jan - 08:38:34 10° NNW 08:44:26 45° ENE 08:50:06 10° SE night (unlit)
30 Jan - 10:25:32 10° NW 10:30:27 26° WSW 10:35:14 10° SSW night (unlit)
30 Jan - 22:00:38 10° SE 22:03:15 13° E 22:05:52 10° ENE daylight
30 Jan - 23:42:18 10° SSW 23:48:43 90° S 23:55:09 10° NNE daylight
31 Jan - 01:31:48 10° W 01:35:56 18° NW 01:40:05 10° N visible
31 Jan - 07:03:40 10° NNE 07:06:15 13° NE 07:08:48 10° ENE night (unlit)
31 Jan - 08:47:44 10° NNW 08:53:51 68° ENE 08:59:44 10° SE night (unlit)
31 Jan - 10:35:51 10° WNW 10:39:29 17° WSW 10:43:03 10° SW night (unlit)
31 Jan - 22:07:44 10° SSE 22:12:15 21° ESE 22:16:46 10° ENE daylight
31 Jan - 23:51:44 10° SW 23:58:04 63° WNW 00:04:25 10° NNE daylight
01 Feb - 01:43:07 10° WNW 01:45:44 13° NW 01:48:21 10° NNW visible
01 Feb - 07:12:00 10° N 07:16:02 18° NE 07:19:59 10° E night (unlit)
01 Feb - 08:57:02 10° NNW 09:03:10 82° WSW 09:09:04 10° SSE night (unlit)
01 Feb - 22:15:49 10° SSE 22:21:19 31° ESE 22:26:50 10° NE daylight
